User: anonymous   Login
Location: Unspecified
(0.0000°N, 0.0000°E)
Time: 13:24:17
(UTC+00:00)
Language:

NOSS 3-1 (A) - Orbit

View from above orbital plane
View from above orbital plane
View from above satellite
View from above satellite

Ground track
Ground track

The orbit data is extracted from the following two-line orbital elements,

1 26905U 01040A   20330.20318640 0.00000000  00000-0  00000-0 0    02
2 26905  63.4082  60.3605 0484523   1.4451 358.5549 13.40785989    01
Epoch (UTC): 25 November 2020 04:52:35
Eccentricity: 0.0484523
inclination: 63.4082°
perigee height: 744 km
apogee height: 1469 km
right ascension of ascending node: 60.3605°
argument of perigee: 1.4451°
revolutions per day: 13.40785989
mean anomaly at epoch: 358.5549°
orbit number at epoch: 0

The dashed part of the orbit path shows where the satellite is in the earth's shadow,  

DLR